Regional Weather Roundup
Issued by NWS

Home | Current Version | Previous Version | Graphics & Text | Print | Product List | Glossary On
Versions: 1 2 3 4 5 6 7 8 9 10 11 12 13 14 15 16 17 18 19 20 21 22 23 24 25 26 27 28 29 30 31 32 33 34 35 36 37 38 39 40 41 42 43 44 45 46 47 48 49 50
000
ASUS43 KBIS 240010
RWRND

NORTH DAKOTA REGIONAL WEATHER ROUNDUP
NATIONAL WEATHER SERVICE BISMARCK ND
700 PM CDT SUN APR 23 2017

NOTE: "FAIR" INDICATES FEW OR NO CLOUDS BELOW 12,000 FEET WITH NO
SIGNIFICANT WEATHER AND/OR OBSTRUCTIONS TO VISIBILITY.


NDZ001>003-009>011-017-240100-
NORTHWEST NORTH DAKOTA

CITY           SKY/WX    TMP DP  RH WIND       PRES   REMARKS
WILLISTON      CLOUDY    33  28  81 E17G25    29.89F
6HR MIN TEMP:  31; 6HR MAX TEMP:  35;

MINOT          CLOUDY    31  27  85 E14       29.96F
MINOT AFB      CLOUDY    30  28  90 E15       29.96S WCI  19
$$

NDZ018>021-031>035-040>046-240100-
SOUTHWEST NORTH DAKOTA

CITY           SKY/WX    TMP DP  RH WIND       PRES   REMARKS
BISMARCK       CLOUDY    37  32  82 E17G28    29.87F
6HR MIN TEMP:  37; 6HR MAX TEMP:  41;

DICKINSON      CLOUDY    36  31  82 E17       29.78F
GARRISON         N/A     29  27  92 E24G30    29.90F WCI  15
6HR MIN TEMP:  29; 6HR MAX TEMP:  31;

HETTINGER ARPT MOSUNNY   47  36  65 E15       29.77S
$$

NDZ004>008-012>016-024-026-027-054-240100-
NORTHEAST NORTH DAKOTA

CITY           SKY/WX    TMP DP  RH WIND       PRES   REMARKS
GRAND FORKS    LGT SNOW  33  30  88 NE17G29   30.04F FOG
GRND FRKS AFB  LGT SNOW  30  28  92 E17G23    30.04F FOG     WCI  18
DEVILS LAKE    LGT SNOW  28  26  92 E20       30.00F FOG     WCI  15
$$

NDZ022-023-025-028>030-036>039-047>053-240100-
SOUTHEAST NORTH DAKOTA

CITY           SKY/WX    TMP DP  RH WIND       PRES   REMARKS
FARGO          CLOUDY    41  33  73 NE21      29.93F
6HR MIN TEMP:  40; 6HR MAX TEMP:  45;

JAMESTOWN      CLOUDY    33  30  88 NE21G28   29.90F
$$




USA.gov is the U.S. government's official web portal to all federal, state and local government web resources and services.